LARETS

Last updated on Sat Sep 05 2026 00:03:39 GMT+0000 (Coordinated Universal Time)

1 27944U 03042F 26247.60921551 .00000011 00000+0 11843-4 0 9997 2 27944 98.4250 51.5238 0012967 144.0112 216.1965 14.63880000224983
UTC large
Height (km)
Speed (km/s)
/
Latitude / Longitude
Inclination (degrees)
Orbital Period (minutes)
Azimuth
Elevation
Range (km)
Doppler Factor

Next 0 passes for location: London (51.5072 / 0.1276)

No passes found over London.
LARETS